When you browse on this site, cookies collect data to enhance your experience and personalize the content and advertising you see.
Visit our Privacy Policy to learn more. By continuing to use the site, you agree to this use of cookies and data.
  • în România
  • Lista ţărilor
  • Pe 7 zile
  • Temperatura apei
  • Hartă satelitară
  • Meteo pe hartă
  • Widget-uri
  • user-avatar
    Intrare

    Meteo pe oră la Escaldes-Engordany

    Astăzi, 16 Ianuarie, Miercuri

    Timp Temperatura Precipitaţii Vânt Presiune Umiditate
    00:00 +2°C° 0 mm 1 m/s 637 mmHg 40%
    01:00 +2°C° 0 mm 1 m/s 637 mmHg 37%
    02:00 +2°C° 0 mm 1 m/s 637 mmHg 35%
    03:00 +2°C° 0 mm 1 m/s 636 mmHg 33%
    04:00 +2°C° 0 mm 1 m/s 636 mmHg 33%
    05:00 +2°C° 0 mm 1 m/s 636 mmHg 34%
    06:00 +2°C° 0 mm 1 m/s 636 mmHg 34%
    07:00 +3°C° 0 mm 1 m/s 636 mmHg 35%
    08:00 +4°C° 0 mm 1 m/s 637 mmHg 36%
    09:00 +5°C° 0 mm 1 m/s 637 mmHg 38%
    10:00 +7°C° 0 mm 1 m/s 638 mmHg 38%
    11:00 +8°C° 0 mm 1 m/s 638 mmHg 38%
    12:00 +9°C° 0 mm 2 m/s 638 mmHg 38%
    13:00 +9°C° 0 mm 1 m/s 638 mmHg 41%
    14:00 +9°C° 0 mm 1 m/s 637 mmHg 45%
    15:00 +8°C° 0 mm 1 m/s 637 mmHg 48%
    16:00 +6°C° 0 mm 1 m/s 636 mmHg 57%
    17:00 +4°C° 0 mm 1 m/s 636 mmHg 66%
    18:00 +1°C° 0 mm 0 m/s 635 mmHg 75%
    19:00 0°C° 0 mm 0 m/s 635 mmHg 75%
    20:00 0°C° 0 mm 0 m/s 635 mmHg 75%
    21:00 0°C° 0 mm 0 m/s 635 mmHg 75%
    22:00 0°C° 0 mm 0 m/s 635 mmHg 75%
    23:00 -1°C° 0 mm 0 m/s 635 mmHg 74%

    Mâine, 17 Ianuarie, Joi

    Timp Temperatura Precipitaţii Vânt Presiune Umiditate
    00:00 -1°C° 0 mm 0 m/s 635 mmHg 74%
    01:00 0°C° 0 mm 1 m/s 635 mmHg 74%
    02:00 0°C° 0 mm 1 m/s 635 mmHg 74%
    03:00 0°C° 0 mm 1 m/s 635 mmHg 73%
    04:00 0°C° 0 mm 1 m/s 634 mmHg 76%
    05:00 0°C° 0 mm 1 m/s 634 mmHg 79%
    06:00 -1°C° 0 mm 1 m/s 634 mmHg 81%
    07:00 0°C° 0 mm 1 m/s 635 mmHg 80%
    08:00 +2°C° 0 mm 1 m/s 636 mmHg 78%
    09:00 +3°C° 0 mm 1 m/s 637 mmHg 77%
    10:00 +2°C° 0.4 mm 2 m/s 637 mmHg 75%
    11:00 +2°C° 0.4 mm 2 m/s 637 mmHg 74%
    12:00 +3°C° 0.4 mm 2 m/s 637 mmHg 73%
    13:00 +2°C° 0.3 mm 2 m/s 637 mmHg 73%
    14:00 +2°C° 0.3 mm 2 m/s 636 mmHg 74%
    15:00 +1°C° 0.3 mm 2 m/s 636 mmHg 75%
    16:00 -1°C° 0 mm 2 m/s 636 mmHg 77%
    17:00 -2°C° 0 mm 2 m/s 635 mmHg 80%
    18:00 -4°C° 0 mm 2 m/s 635 mmHg 83%
    19:00 -4°C° 0 mm 2 m/s 635 mmHg 82%
    20:00 -5°C° 0 mm 2 m/s 635 mmHg 81%
    21:00 -5°C° 0 mm 2 m/s 636 mmHg 81%
    22:00 -5°C° 0 mm 2 m/s 636 mmHg 82%
    23:00 -5°C° 0 mm 2 m/s 635 mmHg 84%

    Poimâine, 18 Ianuarie, Vineri

    Timp Temperatura Precipitaţii Vânt Presiune Umiditate
    00:00 -5°C° 0 mm 2 m/s 635 mmHg 85%
    01:00 -5°C° 0 mm 2 m/s 635 mmHg 86%
    02:00 -5°C° 0 mm 2 m/s 635 mmHg 86%
    03:00 -6°C° 0 mm 2 m/s 635 mmHg 86%
    04:00 -6°C° 0 mm 2 m/s 635 mmHg 86%
    05:00 -6°C° 0 mm 2 m/s 635 mmHg 86%
    06:00 -6°C° 0 mm 2 m/s 635 mmHg 86%
    07:00 -5°C° 0 mm 2 m/s 635 mmHg 81%
    08:00 -2°C° 0 mm 1 m/s 635 mmHg 75%
    09:00 0°C° 0 mm 1 m/s 636 mmHg 69%
    10:00 +1°C° 0 mm 1 m/s 636 mmHg 61%
    11:00 +2°C° 0 mm 1 m/s 636 mmHg 53%
    12:00 +3°C° 0 mm 1 m/s 637 mmHg 45%
    13:00 +3°C° 0 mm 1 m/s 636 mmHg 48%
    14:00 +2°C° 0 mm 1 m/s 636 mmHg 51%
    15:00 +2°C° 0 mm 1 m/s 635 mmHg 54%
    16:00 +1°C° 0 mm 1 m/s 635 mmHg 62%
    17:00 -1°C° 0 mm 0 m/s 635 mmHg 69%
    18:00 -2°C° 0 mm 0 m/s 634 mmHg 77%
    19:00 -3°C° 0 mm 0 m/s 634 mmHg 77%
    20:00 -3°C° 0 mm 0 m/s 634 mmHg 77%
    21:00 -3°C° 0 mm 1 m/s 634 mmHg 77%
    22:00 -3°C° 0 mm 1 m/s 634 mmHg 76%
    23:00 -3°C° 0 mm 1 m/s 634 mmHg 74%

    19 Ianuarie, Sâmbătă

    Timp Temperatura Precipitaţii Vânt Presiune Umiditate
    00:00 -3°C° 0 mm 1 m/s 633 mmHg 73%
    01:00 -3°C° 0 mm 1 m/s 633 mmHg 73%
    02:00 -3°C° 0 mm 1 m/s 633 mmHg 73%
    03:00 -3°C° 0 mm 1 m/s 633 mmHg 73%
    04:00 -3°C° 0 mm 1 m/s 633 mmHg 73%
    05:00 -2°C° 0 mm 1 m/s 633 mmHg 73%
    06:00 -2°C° 0 mm 1 m/s 633 mmHg 74%
    07:00 -1°C° 0 mm 1 m/s 633 mmHg 71%
    08:00 -1°C° 0 mm 0 m/s 634 mmHg 69%
    09:00 0°C° 0 mm 0 m/s 634 mmHg 67%
    10:00 +3°C° 0 mm 1 m/s 634 mmHg 63%
    11:00 +4°C° 0 mm 1 m/s 634 mmHg 59%
    12:00 +5°C° 0 mm 1 m/s 634 mmHg 55%
    13:00 +4°C° 0 mm 1 m/s 634 mmHg 57%
    14:00 +4°C° 0 mm 1 m/s 633 mmHg 60%
    15:00 +4°C° 0 mm 1 m/s 632 mmHg 63%
    16:00 +2°C° 0.1 mm 1 m/s 632 mmHg 72%
    17:00 0°C° 0.1 mm 1 m/s 631 mmHg 80%
    18:00 -2°C° 0.1 mm 0 m/s 631 mmHg 89%
    19:00 -2°C° 0 mm 0 m/s 631 mmHg 89%
    20:00 -3°C° 0 mm 0 m/s 631 mmHg 89%
    21:00 -2°C° 0 mm 1 m/s 631 mmHg 89%
    22:00 -2°C° 0 mm 1 m/s 631 mmHg 88%
    23:00 -2°C° 0 mm 1 m/s 631 mmHg 87%

    20 Ianuarie, Duminică

    Timp Temperatura Precipitaţii Vânt Presiune Umiditate
    00:00 -2°C° 0 mm 1 m/s 631 mmHg 87%
    01:00 -1°C° 0.1 mm 1 m/s 631 mmHg 87%
    02:00 -3°C° 0.1 mm 2 m/s 631 mmHg 88%
    03:00 -3°C° 0.1 mm 2 m/s 631 mmHg 89%
    04:00 -3°C° 0 mm 2 m/s 631 mmHg 89%
    05:00 -3°C° 0 mm 2 m/s 631 mmHg 89%
    06:00 -3°C° 0 mm 2 m/s 632 mmHg 90%
    07:00 -3°C° 0 mm 2 m/s 632 mmHg 85%
    08:00 -2°C° 0 mm 2 m/s 633 mmHg 80%
    09:00 -2°C° 0 mm 2 m/s 633 mmHg 75%
    10:00 +1°C° 0 mm 2 m/s 634 mmHg 69%
    11:00 +2°C° 0 mm 2 m/s 634 mmHg 63%
    12:00 +3°C° 0 mm 2 m/s 635 mmHg 57%
    13:00 +3°C° 0 mm 2 m/s 634 mmHg 58%
    14:00 +3°C° 0 mm 2 m/s 634 mmHg 60%
    15:00 +2°C° 0 mm 2 m/s 634 mmHg 61%
    16:00 +1°C° 0 mm 2 m/s 634 mmHg 70%
    17:00 0°C° 0 mm 1 m/s 633 mmHg 78%
    18:00 -1°C° 0 mm 1 m/s 633 mmHg 87%
    19:00 -1°C° 0.3 mm 1 m/s 634 mmHg 87%
    20:00 -1°C° 0.3 mm 1 m/s 634 mmHg 87%
    21:00 -1°C° 0.3 mm 1 m/s 635 mmHg 87%
    22:00 -1°C° 0.5 mm 1 m/s 635 mmHg 88%
    23:00 -3°C° 0.5 mm 2 m/s 635 mmHg 89%

    21 Ianuarie, Luni

    Timp Temperatura Precipitaţii Vânt Presiune Umiditate
    00:00 -2°C° 0.5 mm 2 m/s 635 mmHg 90%
    01:00 -3°C° 0.1 mm 2 m/s 635 mmHg 90%
    02:00 -3°C° 0.1 mm 2 m/s 635 mmHg 90%
    03:00 -3°C° 0.1 mm 2 m/s 635 mmHg 90%
    04:00 -4°C° 0.1 mm 2 m/s 635 mmHg 90%
    05:00 -4°C° 0.1 mm 2 m/s 635 mmHg 90%
    06:00 -4°C° 0.1 mm 2 m/s 636 mmHg 90%
    07:00 -4°C° 0 mm 2 m/s 636 mmHg 86%
    08:00 -3°C° 0 mm 2 m/s 636 mmHg 81%
    09:00 -3°C° 0 mm 2 m/s 637 mmHg 77%
    10:00 -2°C° 0.1 mm 2 m/s 637 mmHg 73%
    11:00 -1°C° 0.1 mm 2 m/s 637 mmHg 69%
    12:00 -1°C° 0.1 mm 2 m/s 637 mmHg 66%
    13:00 -1°C° 0.1 mm 2 m/s 637 mmHg 66%
    14:00 -1°C° 0.1 mm 2 m/s 637 mmHg 66%
    15:00 -1°C° 0.1 mm 2 m/s 636 mmHg 66%
    16:00 -3°C° 0 mm 2 m/s 636 mmHg 73%
    17:00 -4°C° 0 mm 2 m/s 635 mmHg 81%
    18:00 -6°C° 0 mm 2 m/s 635 mmHg 88%
    19:00 -6°C° 0 mm 2 m/s 635 mmHg 88%
    20:00 -6°C° 0 mm 2 m/s 635 mmHg 88%
    21:00 -6°C° 0 mm 2 m/s 635 mmHg 87%
    22:00 -6°C° 0 mm 2 m/s 635 mmHg 87%
    23:00 -6°C° 0 mm 2 m/s 635 mmHg 87%
    Arată mai mult